Location: Unspecified
(0.0000°N, 0.0000°E)
Time: 18:24:23
(UTC+02:00)

Meteor PRIRODA - Visible Passes

Search period start: 02 August 2015 00:00
Search period end: 12 August 2015 00:00
Orbit: 502 x 522 km, 97.4° (Epoch: 02 August)

Date Brightness Start Highest point End Pass type
(mag) Time Alt. Az. Time Alt. Az. Time Alt. Az.
02 Aug 5.2 07:03:57 10° NNW 07:06:16 18° WNW 07:06:16 18° WNW visible
03 Aug 4.6 06:47:20 10° NNW 06:50:08 31° WNW 06:50:08 31° WNW visible
04 Aug 4.2 06:31:07 10° N 06:34:00 47° NNW 06:34:00 47° NNW visible
05 Aug 4.7 06:15:13 10° NNE 06:17:52 43° NNE 06:17:52 43° NNE visible
06 Aug 5.7 05:59:34 10° NNE 06:01:44 27° ENE 06:01:44 27° ENE visible
07 Aug 6.6 05:44:19 10° NE 05:45:36 16° ENE 05:45:36 16° ENE visible
07 Aug 5.8 07:19:48 10° WNW 07:20:31 11° WNW 07:20:31 11° WNW visible
08 Aug 5.2 07:02:13 10° NNW 07:04:22 19° WNW 07:04:22 19° WNW visible
09 Aug 4.6 06:45:37 10° NNW 06:48:13 30° NW 06:48:13 30° NW visible
10 Aug 4.3 06:29:25 10° N 06:32:04 43° NNW 06:32:04 43° NNW visible
11 Aug 4.9 06:13:29 10° NNE 06:15:55 38° NNE 06:15:55 38° NNE visible
